Location: Hermaringen
(48.5952°N, 10.2585°E)
Time: 06:45:55
(UTC+00:00)

CZ-4 R/B - Pass Details

Date: 18 November 2025
Orbit: 547 x 556 km, 97.6° (Epoch: 06 December)

Event Time Altitude Azimuth Distance (km) Brightness Sun altitude
Rises 16:59:17 0° 153° (SSE) 2,724 7.7 -13.6°
Reaches altitude 10° 17:01:26 10° 149° (SSE) 1,832 6.8 -14.0°
Maximum altitude 17:05:18 54° 72° (ENE) 678 4.4 -14.6°
Drops below altitude 10° 17:09:11 10° 355° (N) 1,841 6.9 -15.2°
Sets 17:11:21 0° 351° (N) 2,738 7.9 -15.6°
